Weather History for KNSE - February, 2013

Change the Weather History Date:

Friday, February 22, 2013

  Actual Average Record
Temperature  
Mean Temperature 66 °F -  
Max Temperature 69 °F 64 °F 82 °F (2011)
Min Temperature 64 °F 46 °F 28 °F (1999)
Cooling Degree Days 2    
Growing Degree Days 16 (Base 50)    
Moisture  
Dew Point 65 °F    
Average Humidity 93    
Maximum Humidity 100    
Minimum Humidity 84    
Precipitation  
Precipitation 3.27 in - - ()
Sea Level Pressure  
Sea Level Pressure 29.91 in    
Wind  
Wind Speed 8 mph (South)    
Max Wind Speed 23 mph    
Max Gust Speed 30 mph    
Visibility 4 miles    
Events Fog , Rain , Thunderstorm    
Averages and records for this station are not official NWS values.
T = Trace of Precipitation, MM = Missing Value Source: NWS Daily Summary

Daily Weather History Graph

Daily Weather History Graph

Search for Another Location

Airport or City:

Trip Planner

Search our weather history database for the weather conditions in past years. The results will help you decide how hot, cold, wet, or windy it might be!

Date:

Astronomy

Feb. 22, 2013 Rise Set
Actual Time 6:21 AM CST 5:41 PM CST
Civil Twilight 5:57 AM CST 6:06 PM CST
Nautical Twilight 5:29 AM CST 6:34 PM CST
Astronomical Twilight 5:01 AM CST 7:02 PM CST
Moon 3:00 PM CST (2/22) 3:58 AM CST (2/22)
Length of Visible Light 12h 08m
Length of Day
11h 20m
Waxing Gibbous, 90% of the Moon is Illuminated
Feb 22
Waxing Gibbous
Feb 25
Full
Mar 4
Last Quarter
Mar 11
New
Mar 19
First Quarter

Hourly Weather History & Observations

Time (CST) Temp. Dew Point Humidity Pressure Visibility Wind Dir Wind Speed Gust Speed Precip Events Conditions
12:56 AM 66.9 °F 63.0 °F 87% 29.89 in 7.0 mi South 13.8 mph - N/A   Overcast
1:56 AM 66.9 °F 63.0 °F 87% 29.88 in 7.0 mi SSE 5.8 mph - N/A   Overcast
2:56 AM 68.0 °F 64.0 °F 87% 29.87 in 6.0 mi South 13.8 mph - 0.00 in Rain Light Rain
3:56 AM 69.1 °F 64.9 °F 87% 29.85 in 6.0 mi South 15.0 mph - 0.00 in   Overcast
4:42 AM 69.8 °F 66.2 °F 88% 29.89 in 5.0 mi South 13.8 mph - 0.01 in Rain , Thunderstorm Light Thunderstorms and Rain
4:56 AM 69.1 °F 66.0 °F 90% 29.86 in 5.0 mi SSW 15.0 mph - 0.01 in Rain , Thunderstorm Light Thunderstorms and Rain
5:01 AM 66.2 °F 64.4 °F 94% 29.92 in 1.5 mi NW 23.0 mph 29.9 mph 0.22 in Rain , Thunderstorm Thunderstorms and Rain
5:09 AM 64.4 °F 62.6 °F 94% 29.91 in 0.5 mi WNW 4.6 mph - 0.70 in Fog , Rain , Thunderstorm Heavy Thunderstorms and Rain
5:16 AM 64.4 °F 62.6 °F 94% 29.90 in 0.5 mi WNW 3.5 mph - 0.87 in Fog , Rain , Thunderstorm Heavy Thunderstorms and Rain
5:25 AM 64.4 °F 62.6 °F 94% 29.91 in 2.0 mi West 6.9 mph - 0.91 in Rain , Thunderstorm Thunderstorms and Rain
5:27 AM 64.4 °F 62.6 °F 94% 29.91 in 3.0 mi WSW 6.9 mph - 0.91 in Rain , Thunderstorm Thunderstorms and Rain
5:31 AM 66.2 °F 62.6 °F 88% 29.91 in 4.0 mi WNW 11.5 mph 19.6 mph 0.92 in Rain Rain
5:38 AM 66.2 °F 62.6 °F 88% 29.91 in 5.0 mi West 9.2 mph 19.6 mph 0.94 in Rain Light Rain
5:46 AM 66.2 °F 64.4 °F 94% 29.91 in 3.0 mi WNW 6.9 mph - 0.99 in Rain , Thunderstorm Light Thunderstorms and Rain
5:56 AM 66.9 °F 64.0 °F 90% 29.88 in 2.0 mi WSW 5.8 mph - 1.09 in Rain , Thunderstorm Thunderstorms and Rain
6:13 AM 66.2 °F 64.4 °F 94% 29.92 in 1.0 mi SW 8.1 mph - 0.23 in Rain , Thunderstorm Heavy Thunderstorms and Rain
6:25 AM 66.2 °F 66.2 °F 100% 29.92 in 0.5 mi NW 8.1 mph - 0.75 in Fog , Rain , Thunderstorm Heavy Thunderstorms and Rain
6:42 AM 68.0 °F 66.2 °F 94% 29.93 in 1.0 mi NW 8.1 mph - 1.23 in Rain , Thunderstorm Heavy Thunderstorms and Rain
6:56 AM 68.0 °F 66.9 °F 96% 29.91 in 4.0 mi SW 6.9 mph - 1.24 in Rain Light Rain
7:33 AM 68.0 °F 66.2 °F 94% 29.96 in 5.0 mi WNW 4.6 mph - 0.01 in Rain Light Rain
7:56 AM 68.0 °F 66.9 °F 96% 29.91 in 6.0 mi Calm Calm - 0.01 in   Mostly Cloudy
8:47 AM 69.8 °F 68.0 °F 94% 29.96 in 6.0 mi NNE 3.5 mph - N/A   Mostly Cloudy
8:56 AM 69.1 °F 66.9 °F 93% 29.91 in 6.0 mi Variable 3.5 mph - N/A   Mostly Cloudy
9:24 AM 69.8 °F 66.2 °F 88% 29.97 in 7.0 mi NNE 5.8 mph - N/A   Overcast
9:56 AM 69.1 °F 64.0 °F 84% 29.92 in 10.0 mi NNE 5.8 mph - N/A   Overcast
10:56 AM 69.1 °F 64.0 °F 84% 29.94 in 10.0 mi Variable 3.5 mph - N/A   Overcast
11:12 AM 68.0 °F 64.4 °F 88% 29.97 in 4.0 mi Variable 3.5 mph - 0.00 in Rain Light Rain
11:36 AM 68.0 °F 64.4 °F 88% 29.97 in 4.0 mi Calm Calm - 0.02 in Rain , Thunderstorm Light Thunderstorms and Rain
11:56 AM 68.0 °F 66.0 °F 93% 29.95 in 4.0 mi WNW 3.5 mph - 0.04 in Rain , Thunderstorm Light Thunderstorms and Rain
12:25 PM 68.0 °F 66.2 °F 94% 29.95 in 4.0 mi Calm Calm - 0.04 in Rain Light Rain
12:56 PM 69.1 °F 66.9 °F 93% 29.89 in 6.0 mi Calm Calm - 0.05 in   Overcast
1:10 PM 69.8 °F 66.2 °F 88% 29.92 in 6.0 mi NE 3.5 mph - 0.00 in Rain Light Rain
1:56 PM 69.1 °F 66.9 °F 93% 29.88 in 10.0 mi SE 4.6 mph - 0.00 in Rain Light Rain
2:00 PM 69.8 °F 66.2 °F 88% 29.92 in 1.0 mi Calm Calm - 0.01 in Rain Light Rain
2:26 PM 68.0 °F 66.2 °F 94% 29.92 in 3.0 mi Calm Calm - 0.11 in Rain Rain
2:56 PM 69.1 °F 69.1 °F 100% 29.88 in 6.0 mi East 3.5 mph - 0.23 in Rain Rain
3:16 PM 69.8 °F 66.2 °F 88% 29.91 in 10.0 mi ESE 4.6 mph - 0.00 in   Overcast
3:56 PM 69.1 °F 66.9 °F 93% 29.86 in 10.0 mi SE 6.9 mph - 0.00 in   Overcast
4:43 PM 68.0 °F 66.2 °F 94% 29.91 in 9.0 mi SSE 8.1 mph - 0.00 in Rain Light Rain
4:56 PM 68.0 °F 66.0 °F 93% 29.86 in 10.0 mi SSE 8.1 mph - 0.00 in   Overcast
5:23 PM 66.2 °F 64.4 °F 94% 29.90 in 7.0 mi ESE 6.9 mph - 0.02 in Rain , Thunderstorm Light Thunderstorms and Rain
5:56 PM 66.9 °F 64.9 °F 93% 29.87 in 6.0 mi ESE 3.5 mph - 0.02 in Rain , Thunderstorm Light Thunderstorms and Rain
6:14 PM 66.2 °F 64.4 °F 94% 29.91 in 7.0 mi ESE 4.6 mph - 0.00 in Rain Light Rain
6:56 PM 66.9 °F 66.0 °F 97% 29.88 in 7.0 mi Calm Calm - 0.01 in Rain Light Rain
7:02 PM 66.2 °F 66.2 °F 100% 29.91 in 2.0 mi East 3.5 mph - 0.11 in Rain Heavy Rain
7:56 PM 66.0 °F 66.0 °F 100% 29.87 in 7.0 mi Calm Calm - 0.57 in Rain Light Rain
8:56 PM 66.0 °F 64.9 °F 96% 29.88 in 3.0 mi SE 5.8 mph - 0.00 in Rain Light Rain
9:22 PM 66.2 °F 64.4 °F 94% 29.92 in 2.5 mi SE 3.5 mph - 0.00 in Rain Light Rain
9:31 PM 66.2 °F 66.2 °F 100% 29.92 in 1.0 mi SE 3.5 mph - 0.00 in   Mist
9:38 PM 66.2 °F 66.2 °F 100% 29.92 in 0.5 mi SE 3.5 mph - 0.00 in Fog Fog
9:56 PM 66.9 °F 66.0 °F 97% 29.88 in 0.5 mi Calm Calm - 0.00 in Fog Fog
10:11 PM 66.2 °F 66.2 °F 100% 29.92 in 0.2 mi SSE 3.5 mph - N/A Fog Fog
10:56 PM 68.0 °F 66.0 °F 93% 29.86 in 0.2 mi South 6.9 mph - N/A Fog Fog
11:24 PM 68.0 °F 66.2 °F 94% 29.89 in 0.5 mi SSW 8.1 mph - N/A Fog Fog
11:54 PM 69.8 °F 66.2 °F 88% 29.89 in 1.5 mi SSW 9.2 mph - N/A   Overcast
11:56 PM 69.1 °F 66.9 °F 93% 29.85 in 1.5 mi SSW 8.1 mph - N/A   Overcast